CZ-3B DEB, 39337

Orbit data source: Space-Track

CZ-3B DEB, 39337 is space debris in HEO originally from a launch on Sat, 04 Sep 2010 UTC launched from the Xichang Space Center, China (XSC). Debris objects in space refer to the collection of defunct objects orbiting the Earth. Examples of debris include non-operational satellites, rocket bodies, and fragments generated from explosions, collisions, or faulty payload assembly.

Loading next visibility...
Identifier
39337, 2010-042J
Orbit
HEO
Country
Flag of CNCN / PRC
Related business
Manufacturer
CALT
Mission
Spacecraft
Bus & Motor
Unknown
Mass
Unknown
Launch date (UTC)
2010-09-04 (15 years ago)
Launch vehicle
Unknown
Launch site
Xichang Space Center, China (XSC)
Object type
Payload
Rocket body
Debris
Shape & HBR
Unknown shape, 0.3 m
Radar Cross Section
Medium (>0.1 m² and <1 m²)

Expand to show TLE details & history
Last TLE update: 3 days ago

TLE from 3 days ago
0 CZ-3B DEB
1 39337U 10042J   25284.78433900 -.00000113  00000-0  81475-2 0  9990
2 39337  24.4388 182.2182 7455473 179.8062 180.9375  1.84151180 78128
Epoch: 2025-10-11T18:49Z
TLE epoch observation values (Epoch: 2025-10-11T18:49:26.889Z)
Latitude
0.00017°
Longitude
-120.74094°
Altitude
42,715.16 km
Speed
1.436 km/s
True Right ascension
12h 08m 55s
True Declination
0° 00' 01"
Sunlit
Object was in daylight at epoch
Visualization orbit readout
Latitude
Unknown
Longitude
Unknown
Altitude
Unknown
Speed
Unknown
Apparent Right ascension
Unknown
Apparent Declination
Unknown
Sunlit
N/A
Visualization observer readout
Local Sidereal Time
09:57:38
Azimuth
Unknown
Elevation
Unknown
Doppler factor
Unknown
Orbital elements
Apogee altitude
42,706.413 km
Perigee altitude
777.038 km
Semi-major axis
28,119.862 km
Eccentricity
0.74555
Inclination
24.4388°
RAAN
182.2182°
Arg. of periapsis
179.8062°
True anomaly
180.20506°
Mean anomaly
180.9375°
Eccentric anomaly
180.53708°
Mean motion
0.46028 °/min
Orbital period
782.13 mins
BSTAR
0.0081475
Loading maneuver chart data...
Computing Atmospheric mass density...
Loading historical data...
Loading historical data...
Loading historical data...
Loading historical data...
Loading historical data...
Loading historical data...
Loading historical data...

Documentation

Showing up to 5 results
|